TimePDT,TemperatureF,Dew PointF,Humidity,Sea Level PressureIn,VisibilityMPH,Wind Direction,Wind SpeedMPH,Gust SpeedMPH,PrecipitationIn,Events,Conditions,WindDirDegrees,DateUTC
12:52 AM,90.0,71.1,54,29.69,10.0,West,6.9,-,N/A,,Clear,270,2013-08-28 07:52:00
1:52 AM,90.0,71.1,54,29.68,10.0,WSW,3.5,-,N/A,,Clear,240,2013-08-28 08:52:00
2:52 AM,89.1,73.0,59,29.68,10.0,West,5.8,-,N/A,,Clear,260,2013-08-28 09:52:00
3:52 AM,88.0,72.0,59,29.68,10.0,NNW,3.5,-,N/A,,Clear,330,2013-08-28 10:52:00
4:52 AM,84.9,71.1,63,29.69,10.0,Calm,Calm,-,N/A,,Clear,0,2013-08-28 11:52:00
5:52 AM,82.9,75.0,77,29.70,10.0,NW,3.5,-,N/A,,Clear,320,2013-08-28 12:52:00
6:52 AM,84.0,73.0,69,29.73,10.0,Calm,Calm,-,N/A,,Clear,0,2013-08-28 13:52:00
7:52 AM,88.0,72.0,59,29.75,10.0,Calm,Calm,-,N/A,,Clear,0,2013-08-28 14:52:00
8:52 AM,91.0,68.0,47,29.77,10.0,Calm,Calm,-,N/A,,Clear,0,2013-08-28 15:52:00
9:52 AM,96.1,68.0,40,29.78,10.0,Calm,Calm,-,N/A,,Clear,0,2013-08-28 16:52:00
10:52 AM,99.0,64.9,33,29.77,10.0,Calm,Calm,-,N/A,,Clear,0,2013-08-28 17:52:00
11:52 AM,102.0,64.0,29,29.76,10.0,Variable,5.8,-,N/A,,Clear,0,2013-08-28 18:52:00
12:52 PM,105.1,64.0,26,29.74,10.0,NNW,5.8,-,N/A,,Clear,340,2013-08-28 19:52:00
1:52 PM,104.0,64.9,28,29.72,10.0,South,8.1,-,N/A,,Partly Cloudy,180,2013-08-28 20:52:00
2:52 PM,102.9,66.9,31,29.71,10.0,SE,17.3,-,N/A,,Partly Cloudy,130,2013-08-28 21:52:00
3:04 PM,105.8,64.4,26,29.73,10.0,ESE,15.0,-,N/A,Thunderstorm,Partly Cloudy,120,2013-08-28 22:04:00
3:48 PM,104.0,66.2,29,29.71,10.0,SE,12.7,-,N/A,,Clear,140,2013-08-28 22:48:00
3:52 PM,102.0,68.0,33,29.69,10.0,ESE,11.5,-,N/A,,Clear,120,2013-08-28 22:52:00
4:52 PM,99.0,68.0,36,29.69,10.0,South,4.6,-,N/A,,Clear,190,2013-08-28 23:52:00
5:52 PM,99.0,64.9,33,29.69,10.0,West,9.2,-,N/A,,Clear,260,2013-08-29 00:52:00
6:52 PM,100.9,64.9,31,29.70,10.0,Calm,Calm,-,N/A,,Clear,0,2013-08-29 01:52:00
7:52 PM,98.1,66.9,36,29.73,10.0,SE,5.8,-,N/A,,Clear,130,2013-08-29 02:52:00
8:52 PM,93.9,70.0,46,29.75,10.0,South,4.6,-,N/A,,Clear,170,2013-08-29 03:52:00
9:52 PM,91.9,70.0,48,29.78,10.0,South,20.7,-,N/A,,Clear,180,2013-08-29 04:52:00
10:52 PM,90.0,72.0,55,29.81,10.0,South,12.7,-,N/A,,Clear,180,2013-08-29 05:52:00
11:52 PM,86.0,69.1,57,29.86,10.0,SSE,12.7,-,N/A,,Mostly Cloudy,150,2013-08-29 06:52:00